Weather observations for the past three days for
Roxboro, Person County Airport
Imperial (Metric)
Date Time (edt) Wind (mph) Vis. (mi.) Weather Sky Cond. Temperature (ºF) Relative Humidity Wind Chill (°F) Heat Index (°F) Pressure Precipitation (in)
Air Dwpt 6 hour altimeter (in) sea level (mb) 1 hr 3 hr 6 hr
Max. Min.
04 17:50 SW 10 10.00 Fair CLR 89.6 69.8 52% 95 29.93 0.0
04 17:30 SW 12 10.00 Partly Cloudy SCT075 SCT110 91.4 73.4 56% 100 29.94 0.0
04 17:10 SW 6 10.00 Partly Cloudy SCT075 87.8 73.4 62% 96 29.94 0.0
04 16:50 S 5 10.00 Fair CLR 89.6 71.6 55% 96 29.94 0.0
04 16:30 S 3 10.00 Fair CLR 89.6 71.6 55% 96 29.93 0.0
04 16:10 S 3 10.00 Fair CLR 87.8 73.4 62% 96 29.94 0.0
04 15:50 S 6 10.00 Fair CLR 82.4 71.6 70% 87 29.96 0.0 0.02
04 15:30 SE 13 G 20 10.00 Thunderstorm Light Rain SCT006 SCT060 SCT110 78.8 71.6 79% 82 29.97 0.0 0.02
04 15:10 E 32 0.00 Thunderstorm and Windy NULL 0 0 0% 29.99 0.0
04 14:50 E 16 G 24 10.00 Thunderstorm in Vicinity OVC060 95 71.6 47% 103 29.98 0.0
04 14:30 S 9 10.00 Mostly Cloudy SCT060 BKN080 BKN095 96.8 71.6 44% 105 29.97 0.0
04 14:10 S 9 10.00 Partly Cloudy SCT060 SCT080 SCT100 96.8 71.6 44% 105 29.99 0.0
04 13:50 S 8 10.00 Mostly Cloudy SCT060 SCT080 BKN100 96.8 71.6 44% 105 29.99 0.0
04 13:30 S 3 10.00 Fair CLR 96.8 69.8 42% 103 30 0.0
04 13:10 SW 6 10.00 Fair CLR 96.8 71.6 44% 105 30 0.0
04 12:50 SW 6 10.00 Fair CLR 95 71.6 47% 103 30.01 0.0
04 12:30 W 3 10.00 Fair CLR 95 71.6 47% 103 30.02 0.0
04 12:10 S 5 10.00 Fair CLR 95 73.4 50% 105 30.02 0.0
04 11:50 S 5 10.00 Fair CLR 93.2 73.4 53% 103 30.03 0.0
04 11:30 Calm 10.00 Fair CLR 91.4 73.4 56% 100 30.04 0.0
04 11:10 W 6 10.00 Fair CLR 89.6 73.4 59% 98 30.04 0.0
04 10:50 W 3 10.00 Fair CLR 89.6 73.4 59% 98 30.04 0.0
04 10:30 W 5 10.00 Fair CLR 87.8 73.4 62% 96 30.04 0.0
04 10:10 W 7 10.00 Fair CLR 86 73.4 66% 93 30.04 0.0
04 09:50 W 6 10.00 Fair CLR 86 73.4 66% 93 30.04 0.0
04 09:30 W 6 10.00 Fair CLR 84.2 73.4 70% 91 30.04 0.0
04 09:10 W 5 10.00 Fair CLR 82.4 73.4 74% 88 30.04 0.0
04 08:50 W 5 10.00 Fair CLR 80.6 73.4 79% 85 30.04 0.0
04 08:30 W 6 10.00 Fair CLR 80.6 71.6 74% 85 30.05 0.0
04 08:10 W 6 10.00 Fair CLR 78.8 71.6 79% 82 30.05 0.0
04 07:50 SW 3 10.00 Fair CLR 77 71.6 83% 78 30.05 0.0
04 07:30 SW 3 10.00 Fair CLR 73.4 71.6 94% 30.05 0.0
04 07:10 SW 3 10.00 Fair CLR 71.6 69.8 94% 30.05 0.0
04 06:50 Calm 10.00 Fair CLR 71.6 69.8 94% 30.04 0.0
04 06:30 Calm 10.00 Fair CLR 73.4 71.6 94% 30.04 0.0
04 06:10 Calm 10.00 Fair CLR 73.4 71.6 94% 30.03 0.0
04 05:50 Calm 10.00 Fair CLR 73.4 71.6 94% 30.03 0.0
04 05:30 Calm 10.00 Fair CLR 71.6 71.6 100% 30.03 0.0
04 05:10 Calm 10.00 Fair CLR 73.4 69.8 89% 30.03 0.0
04 04:50 Calm 10.00 Fair CLR 73.4 71.6 94% 30.02 0.0
04 04:30 Calm 10.00 Fair CLR 75.2 71.6 89% 75 30.02 0.0
04 04:10 SW 3 10.00 Fair CLR 75.2 71.6 89% 75 30.01 0.0
04 03:50 SW 5 10.00 Fair CLR 75.2 71.6 89% 75 30.01 0.0
04 03:30 SW 5 10.00 Fair CLR 75.2 71.6 89% 75 30.01 0.0
04 03:10 SW 3 10.00 Fair CLR 77 71.6 83% 78 30.01 0.0
04 02:50 SW 6 10.00 Fair CLR 77 71.6 83% 78 30.02 0.0
04 02:30 SW 6 10.00 Fair CLR 77 71.6 83% 78 30.02 0.0
04 02:10 SW 6 10.00 Fair CLR 77 71.6 83% 78 30.04 0.0
04 01:50 SW 5 10.00 Fair CLR 77 71.6 83% 78 30.05 0.0
04 01:30 SW 6 10.00 Fair CLR 78.8 73.4 84% 82 30.06 0.0
04 01:10 SW 7 10.00 Fair CLR 78.8 73.4 84% 82 30.06 0.0
04 00:50 SW 5 10.00 Fair CLR 78.8 73.4 84% 82 30.06 0.0
04 00:30 SW 7 10.00 Fair CLR 80.6 73.4 79% 85 30.06 0.0
04 00:10 SW 6 10.00 Fair CLR 78.8 71.6 79% 82 30.05 0.0
03 23:50 SW 3 10.00 Fair CLR 78.8 73.4 84% 82 30.05 0.0
03 23:30 SW 5 10.00 Fair CLR 78.8 73.4 84% 82 30.05 0.0
03 23:10 SW 5 10.00 Fair CLR 78.8 73.4 84% 82 30.05 0.0
03 22:50 SW 3 10.00 Fair CLR 78.8 73.4 84% 82 30.05 0.0
03 22:30 SW 3 10.00 Fair CLR 77 73.4 89% 78 30.05 0.0
03 22:10 Calm 10.00 Fair CLR 78.8 73.4 84% 82 30.06 0.0
03 21:50 Calm 10.00 Fair CLR 78.8 73.4 84% 82 30.06 0.0
03 21:30 Calm 10.00 Fair CLR 78.8 71.6 79% 82 30.05 0.0
03 21:10 Calm 10.00 Fair CLR 80.6 73.4 79% 85 30.05 0.0
03 20:50 Calm 10.00 Fair CLR 80.6 73.4 79% 85 30.04 0.0
03 20:30 Calm 10.00 Fair CLR 82.4 71.6 70% 87 30.02 0.0
03 20:10 Calm 10.00 Fair CLR 82.4 73.4 74% 88 30.01 0.0
03 19:50 Calm 10.00 Fair CLR 86 73.4 66% 93 30.01 0.0
03 19:30 Calm 10.00 Fair CLR 87.8 71.6 59% 94 30 0.0
03 19:10 Calm 10.00 Fair CLR 89.6 71.6 55% 96 30 0.0
03 18:50 S 5 10.00 Fair CLR 91.4 69.8 49% 97 30 0.0
03 18:30 SW 7 10.00 Fair CLR 95 69.8 44% 101 30 0.0
03 18:10 SW 5 10.00 Fair CLR 95 69.8 44% 101 30 0.0
03 17:50 SW 10 10.00 Fair CLR 95 68 41% 100 30.01 0.0
03 17:30 S 7 10.00 Fair CLR 96.8 68 39% 102 30.01 0.0
03 17:10 SW 9 10.00 Fair CLR 96.8 68 39% 102 30.01 0.0
03 16:50 S 6 10.00 Fair CLR 96.8 68 39% 102 30.01 0.0
03 16:30 SW 6 10.00 Fair CLR 96.8 69.8 42% 103 30.01 0.0
03 16:10 W 8 10.00 Fair CLR 95 69.8 44% 101 30.02 0.0
03 15:50 SE 3 10.00 Fair CLR 96.8 69.8 42% 103 30.03 0.0
03 15:30 SW 7 10.00 Partly Cloudy SCT065 96.8 69.8 42% 103 30.03 0.0
03 15:10 S 7 10.00 Fair CLR 95 69.8 44% 101 30.04 0.0
03 14:50 S 6 10.00 Partly Cloudy SCT065 96.8 69.8 42% 103 30.04 0.0
03 14:30 S 8 10.00 Partly Cloudy SCT065 96.8 69.8 42% 103 30.05 0.0
03 14:10 Calm 10.00 Fair CLR 96.8 68 39% 102 30.05 0.0
03 13:50 SE 3 10.00 Partly Cloudy SCT060 96.8 69.8 42% 103 30.06 0.0
03 13:30 Calm 10.00 Partly Cloudy SCT060 95 69.8 44% 101 30.07 0.0
03 13:10 NE 3 10.00 Fair CLR 95 69.8 44% 101 30.07 0.0
03 12:50 N 5 10.00 Fair CLR 95 69.8 44% 101 30.08 0.0
03 12:30 N 3 10.00 Fair CLR 93.2 69.8 47% 99 30.08 0.0
03 12:10 NE 5 10.00 Fair CLR 93.2 69.8 47% 99 30.09 0.0
03 11:50 Calm 10.00 Fair CLR 91.4 71.6 52% 99 30.09 0.0
03 11:30 Calm 10.00 Fair CLR 91.4 73.4 56% 100 30.1 0.0
03 11:10 Calm 10.00 Fair CLR 89.6 73.4 59% 98 30.1 0.0
03 10:50 Calm 10.00 Fair CLR 87.8 73.4 62% 96 30.1 0.0
03 10:30 W 3 10.00 Fair CLR 86 73.4 66% 93 30.1 0.0
03 10:10 W 3 10.00 Fair CLR 84.2 73.4 70% 91 30.1 0.0
03 09:50 Calm 10.00 Fair CLR 82.4 73.4 74% 88 30.09 0.0
03 09:30 W 3 10.00 Fair CLR 82.4 71.6 70% 87 30.09 0.0
03 09:10 Calm 10.00 Fair CLR 80.6 71.6 74% 85 30.09 0.0
03 08:50 Calm 10.00 Fair CLR 78.8 73.4 84% 82 30.1 0.0
03 08:30 Calm 10.00 Fair CLR 77 71.6 83% 78 30.1 0.0
03 08:10 Calm 10.00 Fair CLR 73.4 71.6 94% 30.1 0.0
03 07:50 Calm 10.00 Fair CLR 71.6 71.6 100% 30.1 0.0
03 07:30 Calm 10.00 Fair CLR 69.8 69.8 100% 30.1 0.0
03 07:10 Calm 10.00 Fair CLR 69.8 69.8 100% 30.09 0.0
03 06:50 Calm 0.25 Fog VV002 69.8 69.8 100% 30.08 0.0
03 06:30 Calm 1.00 Fog/Mist VV007 69.8 69.8 100% 30.07 0.0
03 06:10 Calm 7.00 Fair CLR 68 68 100% 30.07 0.0
03 05:50 Calm 2.50 Fog/Mist CLR 69.8 69.8 100% 30.07 0.0
03 05:30 Calm 10.00 Fair CLR 69.8 69.8 100% 30.07 0.0
03 05:10 Calm 7.00 Fair CLR 69.8 68 94% 30.07 0.0
03 04:50 Calm 10.00 Fair CLR 69.8 69.8 100% 30.06 0.0
03 04:30 Calm 7.00 Fair CLR 69.8 69.8 100% 30.06 0.0
03 04:10 Calm 5.00 Fog/Mist CLR 69.8 69.8 100% 30.06 0.0
03 03:50 Calm 10.00 Fair CLR 71.6 69.8 94% 30.06 0.0
03 03:30 Calm 10.00 Fair CLR 69.8 69.8 100% 30.06 0.0
03 03:10 Calm 10.00 Fair CLR 71.6 69.8 94% 30.05 0.0
03 02:50 Calm 10.00 Fair CLR 71.6 69.8 94% 30.06 0.0
03 02:30 Calm 10.00 Fair CLR 71.6 69.8 94% 30.06 0.0
03 02:10 Calm 10.00 Fair CLR 71.6 69.8 94% 30.07 0.0
03 01:50 Calm 10.00 Fair CLR 71.6 71.6 100% 30.07 0.0
03 01:30 Calm 10.00 Fair CLR 71.6 71.6 100% 30.07 0.0
03 01:10 Calm 10.00 Fair CLR 73.4 71.6 94% 30.07 0.0
03 00:50 Calm 10.00 Fair CLR 73.4 71.6 94% 30.07 0.0
03 00:30 Calm 10.00 Fair CLR 73.4 71.6 94% 30.07 0.0
03 00:10 Calm 10.00 Fair CLR 73.4 71.6 94% 30.07 0.0
02 23:50 Calm 10.00 Fair CLR 73.4 71.6 94% 30.07 0.0
02 23:30 E 3 10.00 Fair CLR 77 71.6 83% 78 30.07 0.0
02 23:10 Calm 10.00 Fair CLR 77 71.6 83% 78 30.07 0.0
02 22:50 Calm 10.00 Fair CLR 77 71.6 83% 78 30.07 0.0
02 22:30 E 5 10.00 Fair CLR 78.8 71.6 79% 82 30.08 0.0
02 22:10 Calm 10.00 Fair CLR 78.8 71.6 79% 82 30.07 0.0
02 21:50 E 3 10.00 Fair CLR 82.4 71.6 70% 87 30.08 0.0
02 21:30 SE 3 10.00 Fair CLR 82.4 71.6 70% 87 30.09 0.0
02 21:10 Calm 10.00 Fair CLR 78.8 73.4 84% 82 30.07 0.0
02 20:50 Calm 10.00 Fair CLR 78.8 73.4 84% 82 30.07 0.0
02 20:30 Calm 10.00 Partly Cloudy SCT095 78.8 73.4 84% 82 30.06 0.0
02 20:10 Calm 10.00 Partly Cloudy SCT095 80.6 73.4 79% 85 30.06 0.0
02 19:50 Calm 10.00 Partly Cloudy SCT100 82.4 73.4 74% 88 30.05 0.0
02 19:30 Calm 10.00 Partly Cloudy SCT100 86 73.4 66% 93 30.06 0.0
02 19:10 Calm 10.00 Fair CLR 87.8 75.2 66% 98 30.06 0.0
02 18:50 Calm 10.00 Fair CLR 91.4 71.6 52% 99 30.06 0.0
02 18:30 Calm 10.00 Fair CLR 95 69.8 44% 101 30.06 0.0
02 18:10 SE 3 10.00 Fair CLR 95 68 41% 100 30.05 0.0
02 17:50 S 3 10.00 Fair CLR 95 68 41% 100 30.05 0.0
02 17:30 Calm 10.00 Fair CLR 95 68 41% 100 30.05 0.0
02 17:10 SE 6 10.00 Fair CLR 95 68 41% 100 30.06 0.0
02 16:50 SE 6 10.00 Fair CLR 95 69.8 44% 101 30.06 0.0
02 16:30 SE 6 10.00 Fair CLR 95 69.8 44% 101 30.06 0.0
02 16:10 S 5 10.00 Partly Cloudy SCT065 96.8 69.8 42% 103 30.06 0.0
02 15:50 E 6 10.00 Partly Cloudy SCT065 96.8 69.8 42% 103 30.07 0.0
02 15:30 Calm 10.00 Fair CLR 96.8 68 39% 102 30.07 0.0
02 15:10 E 7 10.00 Partly Cloudy SCT070 96.8 68 39% 102 30.08 0.0
02 14:50 Calm 10.00 Partly Cloudy SCT070 96.8 68 39% 102 30.08 0.0
02 14:30 S 5 10.00 Partly Cloudy SCT060 SCT070 95 68 41% 100 30.09 0.0
02 14:10 S 7 10.00 Fair CLR 95 69.8 44% 101 30.09 0.0
02 13:50 S 6 10.00 Fair CLR 95 69.8 44% 101 30.09 0.0
02 13:30 Calm 10.00 Fair CLR 95 68 41% 100 30.1 0.0
02 13:10 E 5 10.00 Fair CLR 93.2 68 44% 98 30.1 0.0
02 12:50 NE 3 10.00 Fair CLR 93.2 69.8 47% 99 30.1 0.0
02 12:30 Calm 10.00 Fair CLR 93.2 68 44% 98 30.12 0.0
02 12:10 Calm 10.00 Fair CLR 91.4 69.8 49% 97 30.12 0.0
02 11:50 SE 5 10.00 Fair CLR 91.4 68 46% 96 30.12 0.0
02 11:30 E 3 10.00 Fair CLR 89.6 69.8 52% 95 30.13 0.0
02 11:10 E 3 10.00 Fair CLR 89.6 69.8 52% 95 30.13 0.0
02 10:50 SE 5 10.00 Fair CLR 87.8 69.8 55% 93 30.13 0.0
02 10:30 Calm 10.00 Fair CLR 87.8 71.6 59% 94 30.12 0.0
02 10:10 E 3 10.00 Fair CLR 87.8 71.6 59% 94 30.12 0.0
02 09:50 E 3 10.00 Fair CLR 86 71.6 62% 92 30.12 0.0
02 09:30 Calm 10.00 Fair CLR 84.2 71.6 66% 90 30.12 0.0
02 09:10 Calm 10.00 Fair CLR 82.4 71.6 70% 87 30.12 0.0
02 08:50 Calm 10.00 Fair CLR 78.8 71.6 79% 82 30.12 0.0
02 08:30 Calm 10.00 Fair CLR 77 71.6 83% 78 30.12 0.0
02 08:10 Calm 10.00 Fair CLR 73.4 71.6 94% 30.12 0.0
02 07:50 Calm 10.00 Fair CLR 71.6 71.6 100% 30.12 0.0
02 07:30 Calm 10.00 Fair CLR 69.8 69.8 100% 30.12 0.0
02 07:10 Calm 5.00 Fog/Mist CLR 68 68 100% 30.11 0.0
02 06:50 Calm 3.00 Fog/Mist CLR 69.8 69.8 100% 30.1 0.0
02 06:30 Calm 2.00 Fog/Mist CLR 69.8 69.8 100% 30.1 0.0
02 06:10 Calm 10.00 Fair CLR 69.8 69.8 100% 30.1 0.0
02 05:50 Calm 10.00 Fair CLR 69.8 69.8 100% 30.09 0.0
02 05:30 Calm 7.00 Fair CLR 69.8 69.8 100% 30.08 0.0
02 05:10 Calm 1.75 Fog/Mist VV007 69.8 69.8 100% 30.09 0.0
02 04:50 Calm 10.00 Fair CLR 69.8 69.8 100% 30.09 0.0
02 04:30 Calm 7.00 Fair CLR 69.8 69.8 100% 30.08 0.0
02 04:10 Calm 10.00 Fair CLR 71.6 69.8 94% 30.08 0.0
02 03:50 Calm 7.00 Fair CLR 69.8 69.8 100% 30.08 0.0
02 03:30 Calm 5.00 Fog/Mist CLR 71.6 71.6 100% 30.08 0.0
02 03:10 Calm 10.00 Fair CLR 71.6 71.6 100% 30.09 0.0
02 02:50 Calm 10.00 Fair CLR 71.6 71.6 100% 30.09 0.0
02 02:30 Calm 10.00 Fair CLR 71.6 71.6 100% 30.09 0.0
02 02:10 Calm 10.00 Fair CLR 71.6 71.6 100% 30.09 0.0
02 01:50 Calm 10.00 Fair CLR 73.4 71.6 94% 30.09 0.0
02 01:30 Calm 10.00 Fair CLR 73.4 71.6 94% 30.08 0.0
02 01:10 Calm 10.00 Fair CLR 73.4 71.6 94% 30.08 0.0
02 00:30 Calm 10.00 Fair CLR 73.4 71.6 94% 30.07 0.0
02 00:10 Calm 10.00 Fair CLR 73.4 71.6 94% 30.07 0.0
01 23:50 Calm 10.00 Fair CLR 73.4 71.6 94% 30.07 0.0
01 23:30 Calm 10.00 Fair CLR 73.4 71.6 94% 30.07 0.0
01 23:10 Calm 10.00 Fair CLR 73.4 71.6 94% 30.07 0.0
01 22:50 Calm 10.00 Fair CLR 73.4 71.6 94% 30.07 0.0
01 22:30 Calm 10.00 Fair CLR 75.2 71.6 89% 75 30.07 0.0
01 22:10 Calm 10.00 Fair CLR 75.2 71.6 89% 75 30.06 0.0
01 21:50 Calm 10.00 Fair CLR 77 71.6 83% 78 30.06 0.0
01 21:30 Calm 10.00 Fair CLR 77 71.6 83% 78 30.05 0.0
01 21:10 Calm 10.00 Fair CLR 78.8 71.6 79% 82 30.05 0.0
01 20:50 Calm 10.00 Fair CLR 78.8 71.6 79% 82 30.04 0.0
01 20:30 Calm 10.00 Fair CLR 80.6 73.4 79% 85 30.04 0.0
01 20:10 Calm 10.00 Fair CLR 82.4 73.4 74% 88 30.04 0.0
01 19:50 Calm 10.00 Fair CLR 82.4 71.6 70% 87 30.04 0.0
01 19:30 Calm 10.00 Partly Cloudy SCT080 84.2 73.4 70% 91 30.04 0.0
01 19:10 S 3 10.00 Mostly Cloudy BKN080 87.8 71.6 59% 94 30.04 0.0
01 18:50 S 3 10.00 Partly Cloudy SCT090 89.6 71.6 55% 96 30.05 0.0
01 18:30 S 5 10.00 Mostly Cloudy BKN090 89.6 69.8 52% 95 30.05 0.0
01 18:10 S 3 10.00 Mostly Cloudy BKN080 91.4 69.8 49% 97 30.04 0.0
Date Time (edt) Wind (mph) Vis. (mi.) Weather Sky Cond. Air Dwpt Max. Min. Relative Humidity Wind Chill (°F) Heat Index (°F) altimeter (in) sea level (mb) 1 hr 3 hr 6 hr
6 hour
Temperature (ºF) Pressure Precipitation (in)